Location: Bonnesvalyn
(49.1218°N, 3.3177°E)
Time: 14:49:29
(UTC+00:00)

ATLAS 5 CENTAUR R/B - Pass Details

Date: 09 February 2023
Orbit: 460 x 1178 km, 63.3° (Epoch: 24 March)

Event Time Altitude Azimuth Distance (km) Brightness Sun altitude
Rises 19:50:29 0° 319° (NW) 2,967 5.8 -28.8°
Reaches altitude 10° 19:52:43 10° 327° (NNW) 2,155 4.8 -29.1°
Enters shadow 19:55:39 32° 354° (N) 1,286 3.2 -29.6°
